Location: Burera
(21.3780°N, 81.9534°E)
Time: 12:35:57
(UTC+00:00)

Yuri Rocket - Pass Details

Date: 13 August 2020
Orbit: 568 x 1914 km, 28.2° (Epoch: 21 September)

Event Time Altitude Azimuth Distance (km) Brightness Sun altitude
Rises 13:18:26 0° 248° (WSW) 3,399 7.7 -4.1°
Reaches altitude 10° 13:21:15 10° 247° (WSW) 2,284 6.8 -4.7°
Maximum altitude 13:26:25 85° 161° (SSE) 641 3.1 -5.9°
Drops below altitude 10° 13:30:39 10° 71° (ENE) 1,883 5.1 -6.8°
Enters shadow 13:32:05 - 71° (ENE) 2,463 5.7 -7.1°
